Terminal Aerodrome Forecast
Issued by NWS Albany, NY

Home | Current Version | Previous Version | Text Only | Print | Product List | Glossary On
Versions: 1 2 3 4 5 6 7 8 9 10 11 12 13 14 15 16 17 18 19 20 21
000
FTUS41 KALY 211300 AAA
TAFPOU
TAF AMD
KPOU 211316Z 2113/2212 00000KT 6SM -SHRA OVC060
      TEMPO 2113/2115 2SM RA BR SCT015 OVC035
     FM211500 VRB03KT 6SM -SHRA BR SCT035 OVC050
     FM220300 02004KT 6SM BR VCSH OVC030
     FM220800 02005KT 5SM BR VCSH OVC015=

USA.gov is the U.S. government's official web portal to all federal, state and local government web resources and services.